Location: Bakhuizen
(52.8696°N, 5.4575°E)
Time: 05:39:00
(UTC+00:00)

Nimbus 7 Rocket - Pass Details

Date: 30 September 2021
Orbit: 922 x 965 km, 99.4° (Epoch: 17 October)

Event Time Altitude Azimuth Distance (km) Brightness Sun altitude
Rises 01:18:23 0° 12° (NNE) 3,585 8.3 -35.0°
Reaches altitude 10° 01:21:12 10° 359° (N) 2,642 7.3 -34.8°
Enters shadow 01:24:36 23° 326° (NW) 1,866 6.1 -34.5°
